[Iaude] MPEC D59: 2024 CM9 [a=1.73,e=0.50,i=13.2,H=21.2]

mpec at cfa.harvard.edu mpec at cfa.harvard.edu
Sun Feb 18 23:49:47 EST 2024


M.P.E.C. 2024-D59                             Issued 2024 February 19, 04:48 UT

     The Minor Planet Electronic Circulars contain information on unusual
         minor planets, routine data on comets and natural satellites,
         and occasional editorial announcements.  They are published
    on behalf of Division F of the International Astronomical Union by the
          Minor Planet Center, Smithsonian Astrophysical Observatory,
                          Cambridge, MA 02138, U.S.A.
			  
             Prepared using the Tamkin Foundation Computer Network

                              MPC at CFA.HARVARD.EDU
            URL https://www.minorplanetcenter.net/    ISSN 1523-6714

                                    2024 CM9                                    


Observations:
     K24C09M* C2024 02 15.35756308 46 03.369+53 14 37.64         21.81wXED059F51
     K24C09M  C2024 02 15.37072908 46 00.811+53 14 52.55         22.27wXED059F51
     K24C09M  C2024 02 15.38390208 45 58.245+53 15 07.25         22.29wXED059F51
     K24C09M  C2024 02 15.50159708 45 35.469+53 17 13.96         22.18GVED059F51
     K24C09M  C2024 02 15.50224108 45 35.341+53 17 14.58         22.08GVED059F51
     K24C09M KC2024 02 17.11806108 40 37.182+53 45 28.66         21.41GVED059V06
     K24C09M KC2024 02 17.12284608 40 36.253+53 45 33.59         21.49GVED059V06
     K24C09M KC2024 02 17.12763308 40 35.346+53 45 38.63         21.68GVED059V06
     K24C09M KC2024 02 17.13242108 40 34.406+53 45 43.81         21.59GVED059V06
     K24C09M KC2024 02 19.14600608 34 14.040+54 17 41.90         21.24GVED059V06
     K24C09M KC2024 02 19.15076908 34 13.210+54 17 46.80         21.86GVED059V06
     K24C09M KC2024 02 19.15553308 34 12.120+54 17 51.20         21.71GVED059V06
     K24C09M KC2024 02 19.16029708 34 11.230+54 17 55.60         22.23GVED059V06

Observer details:
F51 Pan-STARRS 1, Haleakala.  Observers J. Herman, T. Lowe, P. Minguez, A.
    Schultz, I. Smith.  Measurers K. Chambers, T. de Boer, J. Fairlamb, H.
    Gao, M. Huber, C.-C. Lin, E. Magnier, Y. Ramanjooloo, R. Wainscoat, R.
    Weryk.  1.8-m Ritchey-Chretien + CCD.
V06 Catalina Sky Survey-Kuiper.  Observer J. B. Fazekas.  Measurers T. Beuden,
    V. F. Carvajal, D. Fay, J. B. Fazekas, D. C. Fuls, A. R. Gibbs, A. D.
    Grauer, H. Groeller, J. K. Hogan, R. A. Kowalski, S. M. Larson, G. J.
    Leonard, D. Rankin, R. L. Seaman, F. C. Shelly, K. W. Wierzchos.  1.55-m
    reflector + 1K CCD.

Orbital elements:
2024 CM9                                                 Earth MOID = 0.1480 AU
Epoch 2024 Mar. 31.0 TT = JDT 2460400.5                 MPC                     
M 335.21200              (2000.0)            P               Q                  
n   0.43154117     Peri.  174.63774     -0.49135967     +0.84582797             
a   1.7342880      Node    65.78482     -0.80731451     -0.35282859             
e   0.5047177      Incl.   13.16418     -0.32681641     -0.40010877             
P   2.28           H   21.23          G   0.15           U   8                  
Residuals in seconds of arc
240215 F51  0.0   0.2-    240217 V06  0.0   0.1+    240219 V06  0.8+  0.1+
240215 F51  0.0   0.0     240217 V06  0.1-  0.1-    240219 V06  0.5-  0.1+
240215 F51  0.1-  0.1+    240217 V06  0.1+  0.1-    240219 V06  0.1-  0.0
240215 F51  0.1+  0.1+    240217 V06  0.0   0.0
240215 F51  0.0   0.0     240219 V06  0.2-  0.3-

Ephemeris:
2024 CM9                 a,e,i = 1.73, 0.50, 13                  q = 0.8590
Date    TT    R. A. (2000) Decl.     Delta      r    Elong.  Phase     V
2024 01 20    09 41 43.5 +42 14 12   0.7181  1.6458   150.1    17.3    22.5
...
2024 02 04    09 17 01.4 +48 58 45   0.6144  1.5396   147.5    20.1    22.1
...
2024 02 12    08 56 04.8 +52 08 10   0.5777  1.4811   140.9    24.8    22.0
...
2024 02 18    08 37 50.3 +53 59 54   0.5575  1.4364   134.8    29.2    22.0
2024 02 19    08 34 41.0 +54 15 26   0.5547  1.4289   133.7    30.0    22.0
2024 02 20    08 31 30.8 +54 30 03   0.5519  1.4214   132.6    30.8    22.0
...
2024 02 26    08 12 34.5 +55 37 58   0.5379  1.3761   125.9    35.6    22.0
...
2024 03 05    07 49 27.9 +56 17 57   0.5237  1.3153   117.0    42.2    22.1
...
2024 03 20    07 20 42.4 +55 35 28   0.5002  1.2010   101.6    54.3    22.1

A. U. Tomatic                (C) Copyright 2024 MPC           M.P.E.C. 2024-D59





More information about the Iaude mailing list